カタログに戻る

NOAA 17 DEB

運用中SSO
NORAD 48729·DEBRIS·🇺🇸 United States

打ち上げ Jun 24, 2002 から Vandenberg Space Force Base

Loading…

次のパス (今後24時間)

TLE

最新Source: Space-Track

元期: Sep 14, 2026, 02:37 UTC

1 48729U 02032BN  26257.10948796  .00010327  00000-0  16974-2 0  9995
2 48729  98.4832 213.8095 0011132 353.6108   6.4954 14.70767850287277

AllMySatでNOAA 17 DEBをリアルタイム追跡

Download on the App Store